Time,TemperatureF,DewpointF,PressureIn,WindDirection,WindDirectionDegrees,WindSpeedMPH,WindSpeedGustMPH,Humidity,HourlyPrecipIn,Conditions,Clouds,dailyrainin,SolarRadiationWatts/m^2,SoftwareType,DateUTC
2013-01-24 00:02:00,30.8,17.0,30.04,SSW,209,1.0,3.0,57,0.00,,,0.00,0,weatherlink.com 1.10,2013-01-24 05:02:00,
2013-01-24 00:17:00,30.9,17.0,30.04,SSW,213,0.0,2.0,56,0.00,,,0.00,0,weatherlink.com 1.10,2013-01-24 05:17:00,
2013-01-24 00:31:00,30.8,17.0,30.02,SSW,213,0.0,2.0,57,0.00,,,0.00,0,weatherlink.com 1.10,2013-01-24 05:31:00,
2013-01-24 00:48:00,30.5,18.0,30.02,SSW,213,0.0,2.0,60,0.00,,,0.00,0,weatherlink.com 1.10,2013-01-24 05:48:00,
2013-01-24 01:02:00,30.4,18.0,30.01,SW,230,0.0,4.0,60,0.00,,,0.00,0,weatherlink.com 1.10,2013-01-24 06:02:00,
2013-01-24 01:17:00,31.2,19.0,30.01,SSW,203,1.0,5.0,61,0.00,,,0.00,0,weatherlink.com 1.10,2013-01-24 06:17:00,
2013-01-24 01:33:00,31.5,19.0,30.01,South,188,0.0,6.0,60,0.00,,,0.00,0,weatherlink.com 1.10,2013-01-24 06:33:00,
2013-01-24 01:47:00,31.5,19.0,30.00,SW,215,3.0,4.0,61,0.00,,,0.00,0,weatherlink.com 1.10,2013-01-24 06:47:00,
2013-01-24 02:03:00,31.2,19.0,30.00,WSW,238,0.0,4.0,61,0.00,,,0.00,0,weatherlink.com 1.10,2013-01-24 07:03:00,
2013-01-24 02:17:00,30.7,19.0,29.99,West,260,1.0,1.0,63,0.00,,,0.00,0,weatherlink.com 1.10,2013-01-24 07:17:00,
2013-01-24 02:33:00,30.3,19.0,29.99,West,260,0.0,2.0,64,0.00,,,0.00,0,weatherlink.com 1.10,2013-01-24 07:33:00,
2013-01-24 02:47:00,30.0,19.0,29.98,West,260,0.0,1.0,65,0.00,,,0.00,0,weatherlink.com 1.10,2013-01-24 07:47:00,
2013-01-24 03:04:00,30.0,20.0,29.97,South,190,0.0,3.0,66,0.00,,,0.00,0,weatherlink.com 1.10,2013-01-24 08:04:00,
2013-01-24 03:18:00,30.4,20.0,29.96,SSW,209,0.0,4.0,66,0.00,,,0.00,0,weatherlink.com 1.10,2013-01-24 08:18:00,
2013-01-24 03:33:00,31.0,21.0,29.95,WSW,241,0.0,7.0,66,0.00,,,0.00,0,weatherlink.com 1.10,2013-01-24 08:33:00,
2013-01-24 03:48:00,31.4,21.0,29.95,West,276,0.0,5.0,66,0.00,,,0.00,0,weatherlink.com 1.10,2013-01-24 08:48:00,
2013-01-24 04:04:00,32.1,22.0,29.95,WSW,238,2.0,5.0,66,0.00,,,0.00,0,weatherlink.com 1.10,2013-01-24 09:04:00,
2013-01-24 04:18:00,32.6,22.0,29.95,SW,219,1.0,6.0,65,0.00,,,0.00,0,weatherlink.com 1.10,2013-01-24 09:18:00,
2013-01-24 04:34:00,32.9,23.0,29.95,WSW,248,0.0,5.0,66,0.00,,,0.00,0,weatherlink.com 1.10,2013-01-24 09:34:00,
2013-01-24 04:48:00,33.0,23.0,29.95,SW,223,0.0,4.0,66,0.00,,,0.00,0,weatherlink.com 1.10,2013-01-24 09:48:00,
2013-01-24 05:03:00,33.1,22.0,29.96,West,260,1.0,6.0,65,0.00,,,0.00,0,weatherlink.com 1.10,2013-01-24 10:03:00,
2013-01-24 05:18:00,32.8,23.0,29.99,North,5,0.0,6.0,67,0.00,,,0.00,0,weatherlink.com 1.10,2013-01-24 10:18:00,
2013-01-24 05:34:00,32.5,22.0,30.00,NNW,335,0.0,3.0,66,0.00,,,0.00,0,weatherlink.com 1.10,2013-01-24 10:34:00,
2013-01-24 05:48:00,32.2,22.0,30.01,NNW,342,0.0,4.0,67,0.00,,,0.00,0,weatherlink.com 1.10,2013-01-24 10:48:00,
2013-01-24 06:04:00,31.9,22.0,30.02,ENE,71,0.0,1.0,68,0.00,,,0.00,0,weatherlink.com 1.10,2013-01-24 11:04:00,
2013-01-24 06:19:00,31.7,22.0,30.03,ENE,71,0.0,1.0,68,0.00,,,0.00,0,weatherlink.com 1.10,2013-01-24 11:19:00,
2013-01-24 06:34:00,31.4,22.0,30.04,ENE,71,0.0,0.0,69,0.00,,,0.00,0,weatherlink.com 1.10,2013-01-24 11:34:00,
2013-01-24 06:49:00,30.9,22.0,30.05,ENE,71,0.0,1.0,70,0.00,,,0.00,0,weatherlink.com 1.10,2013-01-24 11:49:00,
2013-01-24 07:04:00,30.9,21.0,30.07,NW,304,2.0,3.0,68,0.00,,,0.00,0,weatherlink.com 1.10,2013-01-24 12:04:00,
2013-01-24 07:19:00,31.4,21.0,30.08,NNW,340,0.0,6.0,65,0.00,,,0.00,0,weatherlink.com 1.10,2013-01-24 12:19:00,
2013-01-24 07:33:00,31.5,21.0,30.09,WNW,294,5.0,7.0,64,0.00,,,0.00,7,weatherlink.com 1.10,2013-01-24 12:33:00,
2013-01-24 07:49:00,31.3,20.0,30.10,NW,324,0.0,6.0,62,0.00,,,0.00,19,weatherlink.com 1.10,2013-01-24 12:49:00,
2013-01-24 08:04:00,31.0,19.0,30.11,North,355,2.0,4.0,62,0.00,,,0.00,47,weatherlink.com 1.10,2013-01-24 13:04:00,
2013-01-24 08:20:00,31.1,19.0,30.13,NNW,328,1.0,8.0,62,0.00,,,0.00,65,weatherlink.com 1.10,2013-01-24 13:20:00,
2013-01-24 08:34:00,31.1,19.0,30.14,NE,38,2.0,8.0,61,0.00,,,0.00,67,weatherlink.com 1.10,2013-01-24 13:34:00,
2013-01-24 08:50:00,31.2,19.0,30.16,ENE,57,3.0,12.0,60,0.00,,,0.00,91,weatherlink.com 1.10,2013-01-24 13:50:00,
2013-01-24 09:05:00,31.9,19.0,30.17,NE,44,2.0,10.0,59,0.00,,,0.00,179,weatherlink.com 1.10,2013-01-24 14:05:00,
2013-01-24 09:19:00,32.3,19.0,30.18,NNE,19,3.0,11.0,58,0.00,,,0.00,255,weatherlink.com 1.10,2013-01-24 14:19:00,
2013-01-24 09:35:00,34.3,19.0,30.20,North,360,3.0,10.0,54,0.00,,,0.00,332,weatherlink.com 1.10,2013-01-24 14:35:00,
2013-01-24 09:49:00,34.4,19.0,30.21,NE,36,0.0,13.0,54,0.00,,,0.00,350,weatherlink.com 1.10,2013-01-24 14:49:00,
2013-01-24 10:05:00,33.8,18.0,30.22,NNW,336,3.0,16.0,53,0.00,,,0.00,415,weatherlink.com 1.10,2013-01-24 15:05:00,
2013-01-24 10:20:00,35.1,18.0,30.23,West,273,4.0,18.0,50,0.00,,,0.00,434,weatherlink.com 1.10,2013-01-24 15:20:00,
2013-01-24 10:35:00,34.6,18.0,30.25,NNW,339,9.0,15.0,50,0.00,,,0.00,276,weatherlink.com 1.10,2013-01-24 15:35:00,
2013-01-24 10:51:00,34.4,19.0,30.27,North,355,6.0,14.0,53,0.00,,,0.00,536,weatherlink.com 1.10,2013-01-24 15:51:00,
2013-01-24 11:05:00,33.5,18.0,30.27,NNE,26,4.0,15.0,53,0.00,,,0.00,443,weatherlink.com 1.10,2013-01-24 16:05:00,
2013-01-24 11:21:00,33.3,17.0,30.29,NNW,328,9.0,16.0,51,0.00,,,0.00,271,weatherlink.com 1.10,2013-01-24 16:21:00,
2013-01-24 11:36:00,33.4,15.0,30.29,North,360,7.0,19.0,47,0.00,,,0.00,343,weatherlink.com 1.10,2013-01-24 16:36:00,
2013-01-24 11:50:00,33.5,14.0,30.29,NNE,22,7.0,14.0,44,0.00,,,0.00,346,weatherlink.com 1.10,2013-01-24 16:50:00,
2013-01-24 12:06:00,33.9,12.0,30.31,North,355,10.0,18.0,40,0.00,,,0.00,450,weatherlink.com 1.10,2013-01-24 17:06:00,
2013-01-24 12:21:00,33.6,11.0,30.30,NNW,336,7.0,15.0,39,0.00,,,0.00,378,weatherlink.com 1.10,2013-01-24 17:21:00,
2013-01-24 12:36:00,32.9,9.0,30.32,NE,55,4.0,23.0,36,0.00,,,0.00,506,weatherlink.com 1.10,2013-01-24 17:36:00,
2013-01-24 12:52:00,32.6,8.0,30.32,NNW,346,4.0,17.0,36,0.00,,,0.00,441,weatherlink.com 1.10,2013-01-24 17:52:00,
2013-01-24 13:06:00,32.5,8.0,30.32,NW,325,13.0,16.0,35,0.00,,,0.00,422,weatherlink.com 1.10,2013-01-24 18:06:00,
2013-01-24 13:21:00,32.8,8.0,30.33,NNW,333,3.0,13.0,36,0.00,,,0.00,383,weatherlink.com 1.10,2013-01-24 18:21:00,
2013-01-24 13:36:00,33.9,9.0,30.33,NNW,341,6.0,15.0,36,0.00,,,0.00,522,weatherlink.com 1.10,2013-01-24 18:36:00,
2013-01-24 13:51:00,33.6,9.0,30.33,North,355,11.0,14.0,36,0.00,,,0.00,589,weatherlink.com 1.10,2013-01-24 18:51:00,
2013-01-24 14:07:00,34.0,9.0,30.34,NE,45,7.0,11.0,36,0.00,,,0.00,563,weatherlink.com 1.10,2013-01-24 19:07:00,
2013-01-24 14:21:00,33.4,8.0,30.34,WNW,283,8.0,16.0,35,0.00,,,0.00,471,weatherlink.com 1.10,2013-01-24 19:21:00,
2013-01-24 14:37:00,33.1,7.0,30.35,WSW,248,3.0,14.0,34,0.00,,,0.00,478,weatherlink.com 1.10,2013-01-24 19:37:00,
2013-01-24 14:51:00,33.6,7.0,30.36,North,360,7.0,16.0,33,0.00,,,0.00,459,weatherlink.com 1.10,2013-01-24 19:51:00,
2013-01-24 15:06:00,33.3,12.0,30.37,ESE,116,1.0,13.0,42,0.00,,,0.00,367,weatherlink.com 1.10,2013-01-24 20:06:00,
2013-01-24 15:22:00,33.1,13.0,30.37,NNE,22,5.0,9.0,44,0.00,,,0.00,371,weatherlink.com 1.10,2013-01-24 20:22:00,
2013-01-24 15:37:00,32.6,12.0,30.39,North,355,0.0,10.0,43,0.00,,,0.00,279,weatherlink.com 1.10,2013-01-24 20:37:00,
2013-01-24 15:51:00,32.4,9.0,30.39,NNW,337,2.0,11.0,37,0.00,,,0.00,171,weatherlink.com 1.10,2013-01-24 20:51:00,
2013-01-24 16:07:00,32.0,8.0,30.39,North,355,1.0,7.0,36,0.00,,,0.00,114,weatherlink.com 1.10,2013-01-24 21:07:00,
2013-01-24 16:22:00,31.8,6.0,30.39,North,355,0.0,8.0,34,0.00,,,0.00,58,weatherlink.com 1.10,2013-01-24 21:22:00,
2013-01-24 16:37:00,31.6,7.0,30.42,NE,43,4.0,9.0,35,0.00,,,0.00,58,weatherlink.com 1.10,2013-01-24 21:37:00,
2013-01-24 16:52:00,31.2,6.0,30.41,ENE,59,5.0,13.0,34,0.00,,,0.00,51,weatherlink.com 1.10,2013-01-24 21:52:00,
2013-01-24 17:07:00,30.8,5.0,30.43,North,11,4.0,10.0,34,0.00,,,0.00,26,weatherlink.com 1.10,2013-01-24 22:07:00,
2013-01-24 17:23:00,30.5,5.0,30.43,NNW,342,0.0,7.0,34,0.00,,,0.00,11,weatherlink.com 1.10,2013-01-24 22:23:00,
2013-01-24 17:38:00,30.0,6.0,30.44,North,5,2.0,9.0,36,0.00,,,0.00,0,weatherlink.com 1.10,2013-01-24 22:38:00,
2013-01-24 17:52:00,29.5,5.0,30.44,North,5,5.0,6.0,35,0.00,,,0.00,0,weatherlink.com 1.10,2013-01-24 22:52:00,
2013-01-24 18:09:00,29.0,5.0,30.45,NNW,346,1.0,4.0,36,0.00,,,0.00,0,weatherlink.com 1.10,2013-01-24 23:09:00,
2013-01-24 18:23:00,28.6,6.0,30.46,NNW,346,0.0,1.0,38,0.00,,,0.00,0,weatherlink.com 1.10,2013-01-24 23:23:00,
2013-01-24 18:38:00,28.0,5.0,30.46,North,9,0.0,2.0,37,0.00,,,0.00,0,weatherlink.com 1.10,2013-01-24 23:38:00,
2013-01-24 18:54:00,27.6,4.0,30.47,North,5,0.0,1.0,37,0.00,,,0.00,0,weatherlink.com 1.10,2013-01-24 23:54:00,
2013-01-24 19:08:00,27.6,5.0,30.49,North,355,0.0,2.0,38,0.00,,,0.00,0,weatherlink.com 1.10,2013-01-25 00:08:00,
2013-01-24 19:23:00,27.3,5.0,30.49,North,355,0.0,1.0,39,0.00,,,0.00,0,weatherlink.com 1.10,2013-01-25 00:23:00,
2013-01-24 19:39:00,26.8,6.0,30.50,North,355,0.0,0.0,41,0.00,,,0.00,0,weatherlink.com 1.10,2013-01-25 00:39:00,
2013-01-24 19:53:00,26.5,6.0,30.50,North,355,0.0,1.0,41,0.00,,,0.00,0,weatherlink.com 1.10,2013-01-25 00:53:00,
2013-01-24 20:09:00,26.2,6.0,30.50,North,355,0.0,1.0,42,0.00,,,0.00,0,weatherlink.com 1.10,2013-01-25 01:09:00,
2013-01-24 20:23:00,25.9,6.0,30.50,North,355,0.0,1.0,42,0.00,,,0.00,0,weatherlink.com 1.10,2013-01-25 01:23:00,
2013-01-24 20:39:00,25.6,6.0,30.50,North,355,0.0,1.0,43,0.00,,,0.00,0,weatherlink.com 1.10,2013-01-25 01:39:00,
2013-01-24 20:54:00,25.4,6.0,30.50,North,355,0.0,0.0,43,0.00,,,0.00,0,weatherlink.com 1.10,2013-01-25 01:54:00,
2013-01-24 21:09:00,24.9,6.0,30.51,North,355,0.0,1.0,44,0.00,,,0.00,0,weatherlink.com 1.10,2013-01-25 02:09:00,
2013-01-24 21:24:00,24.7,6.0,30.51,North,355,0.0,0.0,44,0.00,,,0.00,0,weatherlink.com 1.10,2013-01-25 02:24:00,
2013-01-24 21:39:00,24.4,6.0,30.50,North,355,0.0,1.0,46,0.00,,,0.00,0,weatherlink.com 1.10,2013-01-25 02:39:00,
2013-01-24 21:54:00,24.1,6.0,30.50,North,355,0.0,1.0,46,0.00,,,0.00,0,weatherlink.com 1.10,2013-01-25 02:54:00,
2013-01-24 22:09:00,23.8,7.0,30.50,North,355,0.0,0.0,48,0.00,,,0.00,0,weatherlink.com 1.10,2013-01-25 03:09:00,
2013-01-24 22:24:00,23.3,6.0,30.50,North,355,0.0,1.0,48,0.00,,,0.00,0,weatherlink.com 1.10,2013-01-25 03:24:00,
2013-01-24 22:40:00,22.9,6.0,30.50,North,355,0.0,0.0,49,0.00,,,0.00,0,weatherlink.com 1.10,2013-01-25 03:40:00,
2013-01-24 22:55:00,22.8,6.0,30.51,North,355,0.0,1.0,49,0.00,,,0.00,0,weatherlink.com 1.10,2013-01-25 03:55:00,
2013-01-24 23:09:00,22.4,6.0,30.51,North,355,0.0,0.0,50,0.00,,,0.00,0,weatherlink.com 1.10,2013-01-25 04:09:00,
2013-01-24 23:26:00,22.2,7.0,30.51,East,79,0.0,1.0,52,0.00,,,0.00,0,weatherlink.com 1.10,2013-01-25 04:26:00,
2013-01-24 23:40:00,22.2,7.0,30.51,East,79,0.0,1.0,52,0.00,,,0.00,0,weatherlink.com 1.10,2013-01-25 04:40:00,
2013-01-24 23:54:00,22.1,7.0,30.51,East,79,0.0,1.0,53,0.00,,,0.00,0,weatherlink.com 1.10,2013-01-25 04:54:00,